Theta_e
298 298 298 297 297 297 297 297 296 295 294 292 294 297 297 298 298 299 299 300 301 300 299 300 300 300 299 298 300 298 299 298 299 301 302 302 303 303 304 304 304 303 303 302 302 302 303 296 298 299 296 297 295 294
298 298 298 298 297 297 296 296 296 295 294 293 293 296 297 298 298 298 298 299 301 300 299 300 300 299 299 299 298 298 297 298 298 299 298 300 302 301 302 305 302 304 302 302 301 301 297 296 295 294 294 294 292 292
298 298 297 298 297 296 295 296 296 295 294 294 292 295 297 298 298 298 297 297 299 298 298 299 299 298 298 299 299 298 299 300 299 299 297 299 301 299 303 301 302 301 300 301 300 298 296 295 293 293 293 292 291 290
298 297 297 296 297 296 295 296 295 294 294 293 293 295 297 297 297 297 297 297 297 297 299 298 300 300 300 299 299 299 300 299 299 298 298 299 300 298 300 300 302 300 299 299 299 297 295 294 293 292 292 291 290 289
298 298 297 296 296 296 296 296 296 294 293 294 294 295 297 297 297 296 296 296 296 297 297 297 299 300 300 299 300 299 299 298 299 298 298 299 297 299 298 299 299 297 298 299 299 296 296 294 292 291 291 290 289 288
296 297 296 296 297 296 296 296 295 295 294 293 293 295 296 296 296 295 295 295 297 299 299 298 297 299 300 300 299 299 299 298 299 298 297 297 297 297 299 299 296 296 296 296 296 294 294 292 291 290 290 289 288 287
297 297 296 296 296 296 296 295 294 293 294 293 292 294 295 296 296 293 293 294 295 296 297 296 298 299 299 300 299 300 300 300 299 298 297 297 297 298 297 299 297 296 295 295 294 294 292 291 289 289 289 288 287 286
297 297 296 296 296 296 295 294 293 293 293 292 292 292 294 295 293 293 294 294 295 296 296 296 297 300 300 300 299 299 299 299 299 298 297 297 297 296 297 295 296 295 294 293 293 293 293 290 288 288 287 286 285 284
297 297 297 297 296 296 294 293 293 293 292 292 291 292 293 293 294 295 294 294 295 295 294 294 298 300 300 298 298 298 298 299 295 297 297 296 296 299 296 296 296 294 294 292 291 290 289 288 287 286 285 284 283 281
296 297 297 296 296 294 293 293 294 293 292 291 290 290 291 295 294 294 295 295 295 294 295 295 295 300 299 296 295 297 296 297 296 296 296 297 299 291 293 295 295 293 293 292 291 288 287 286 285 285 284 283 282 281
295 296 296 296 295 294 294 291 293 293 291 290 291 291 294 294 294 293 293 294 294 294 294 294 295 298 297 297 296 295 298 298 297 298 299 298 298 291 290 292 292 292 291 291 290 290 288 287 286 284 283 281 281 280
296 296 296 295 295 293 292 292 293 291 291 290 293 294 293 293 292 291 292 293 294 296 293 294 295 297 298 298 297 296 298 298 299 297 299 299 294 287 288 290 290 290 289 289 288 288 287 286 284 283 282 281 280 280
295 295 295 295 294 292 292 292 292 291 292 293 293 292 291 291 288 290 291 294 294 293 293 293 295 297 298 297 297 298 298 298 295 299 298 297 289 286 288 288 288 287 286 286 286 285 285 284 283 282 282 281 280 279
293 294 294 294 294 293 291 291 291 291 291 291 291 289 286 288 289 290 293 293 293 294 294 295 294 296 297 294 293 296 296 297 297 296 297 293 288 286 288 288 287 286 285 285 284 284 283 283 282 281 281 281 280 279
292 292 294 294 294 293 291 291 291 291 290 290 290 286 289 289 291 293 293 294 295 296 295 297 296 297 294 294 295 294 295 294 295 296 294 291 290 289 288 287 286 286 285 284 284 283 282 282 282 281 281 280 279 279
291 292 293 293 292 291 291 291 291 291 290 290 289 288 288 289 290 292 293 293 295 296 296 297 294 293 296 295 297 296 295 295 295 292 293 292 290 289 289 287 286 285 284 284 283 282 282 282 281 281 280 279 278 278
291 291 291 293 292 291 291 291 291 291 290 290 289 289 289 290 291 292 293 294 295 296 298 298 295 296 294 297 296 296 294 293 293 294 294 293 292 290 288 287 286 285 284 283 282 282 281 281 280 280 279 278 277 277
290 291 291 292 292 291 291 291 291 290 289 289 289 290 291 292 292 293 292 294 295 295 297 297 295 295 294 296 294 293 294 294 294 294 293 292 290 289 288 287 286 285 284 283 282 281 281 280 279 279 278 278 277 277
289 290 291 291 291 291 291 290 290 289 289 290 289 290 291 292 291 292 291 292 294 295 296 295 292 295 294 293 294 295 295 296 295 293 292 290 289 288 288 286 285 284 283 282 282 281 280 280 279 278 278 278 277 277
286 287 289 290 290 290 290 290 291 291 290 290 290 291 291 291 292 291 291 291 293 294 294 294 292 296 297 298 298 298 297 296 295 292 290 289 288 287 287 286 285 284 282 281 280 280 279 278 278 278 278 277 277 277
287 288 289 290 290 290 290 290 290 290 290 290 290 290 290 290 290 290 291 291 291 293 293 296 298 298 298 298 297 297 297 296 296 295 295 291 288 287 286 285 283 283 282 281 280 280 279 279 279 278 278 278 277 276
288 289 289 289 290 290 290 290 291 290 290 290 290 290 290 289 289 290 290 290 291 292 293 294 295 296 297 296 296 296 296 295 294 293 292 291 289 288 286 285 283 282 282 282 281 281 280 279 279 279 278 278 278 277
287 287 288 289 290 288 289 290 290 290 287 288 289 289 288 289 290 290 289 289 289 289 289 291 292 293 294 295 295 295 295 294 293 292 291 290 289 288 287 285 284 283 282 282 281 280 280 279 279 279 279 278 278 277
287 288 288 289 289 286 289 290 291 290 290 289 288 288 287 288 289 288 288 287 286 286 286 288 289 290 291 292 293 293 293 292 291 290 289 288 288 287 286 285 284 283 283 282 281 280 279 279 279 279 279 278 278 277
287 287 289 284 287 287 288 283 287 290 287 287 288 287 288 288 286 285 285 285 285 285 284 285 285 286 287 289 290 291 290 290 289 289 288 287 287 286 285 284 283 283 282 281 280 280 280 279 279 279 279 279 278 277
283 288 287 286 286 287 287 286 287 287 284 285 287 284 286 285 287 286 284 283 283 283 283 284 284 285 285 286 287 289 289 288 287 287 287 286 286 285 285 284 283 282 282 281 280 280 280 280 280 280 280 279 278 277
284 283 289 290 291 291 289 289 289 287 286 286 284 282 284 284 283 282 282 282 282 283 284 283 284 284 285 285 286 286 287 287 286 285 284 284 284 284 283 284 284 283 282 281 281 280 280 281 280 280 280 279 278 277
289 289 287 289 290 290 290 289 289 289 288 287 286 287 286 284 283 279 280 281 282 283 283 283 283 284 284 284 285 286 286 286 285 284 284 285 283 282 282 282 281 281 281 280 280 280 280 280 280 280 279 278 277 277
288 288 288 286 288 287 287 287 286 287 286 287 287 282 278 276 276 278 279 281 282 283 283 283 283 284 284 284 285 285 285 285 284 284 285 284 283 282 282 281 281 281 281 281 281 280 280 280 279 278 278 277 277 276
287 287 287 285 282 283 284 284 283 283 284 284 283 279 277 275 275 277 278 280 282 282 282 282 283 283 283 283 283 283 283 283 283 283 283 283 282 282 282 282 282 282 282 281 281 280 279 279 279 279 278 278 277 276
286 286 285 284 282 282 282 282 282 282 282 282 281 280 277 275 275 276 276 277 278 279 281 281 282 282 282 282 282 282 282 282 282 282 282 282 283 283 282 282 282 281 281 281 281 280 280 279 278 278 278 277 276 274
284 284 284 281 281 281 281 281 282 282 281 280 279 278 276 276 274 273 273 275 276 278 278 279 280 280 280 280 280 280 280 281 281 281 282 281 281 281 281 281 281 281 281 280 279 279 278 278 277 277 276 273 273 273
282 282 281 281 280 280 280 281 281 279 279 278 276 276 275 274 270 270 270 271 273 274 275 276 276 277 278 278 279 279 279 279 279 279 279 279 279 279 279 279 279 279 278 277 277 276 276 275 273 273 272 272 271 271
Wind_Speed
29 30 23 22 24 23 23 23 19 15 14 15 18 18 17 14 12 10 12 10 8 9 10 10 9 9 8 5 3 5 4 3 3 3 2 2 1 2 2 3 2 1 0 0 1 1 2 12 3 3 4 7 9 11
22 31 26 27 25 25 25 25 23 17 15 16 18 16 15 14 12 11 13 13 15 10 13 16 15 11 8 7 12 4 4 3 3 3 1 2 2 1 3 4 1 2 1 1 0 1 6 7 7 3 4 4 7 8
27 30 25 26 24 28 25 24 21 18 16 13 14 16 15 14 13 11 17 16 18 23 17 10 8 7 8 6 7 6 4 4 5 4 5 2 2 2 2 2 3 3 1 2 3 5 6 7 6 4 4 3 5 7
33 35 27 27 28 30 28 26 22 19 16 15 17 17 16 14 13 12 14 16 13 10 6 4 11 13 12 9 8 11 17 13 9 5 3 2 2 1 1 2 1 1 3 3 3 7 8 5 4 4 3 4 4 7
27 34 29 30 27 31 28 28 24 21 18 16 18 18 16 16 15 13 14 13 11 5 6 8 12 10 11 12 13 15 12 9 6 3 2 1 2 2 1 1 1 2 3 3 2 6 3 6 5 0 0 2 3 4
21 35 33 31 29 27 29 27 25 21 19 16 18 19 19 18 16 15 6 8 12 20 8 3 5 4 12 13 11 8 9 7 4 3 2 1 2 1 1 2 4 5 6 5 5 7 6 6 1 2 5 2 2 4
39 38 32 31 28 28 25 27 23 21 19 17 18 19 18 16 15 5 5 12 11 10 6 4 3 4 15 13 10 8 5 3 2 3 2 1 1 2 2 2 10 10 8 7 7 9 7 5 5 7 2 2 2 4
36 37 33 31 28 29 30 27 24 22 21 19 18 18 17 14 12 11 13 13 11 7 6 3 2 5 6 5 4 4 4 3 2 2 2 1 2 1 2 5 11 11 11 9 7 5 5 8 7 5 2 1 2 5
32 37 33 33 34 32 28 27 25 23 21 21 20 21 19 14 5 8 12 12 8 5 5 2 4 3 8 4 5 3 2 1 1 1 1 2 1 4 3 14 14 14 10 12 10 8 8 7 7 5 3 3 4 5
25 33 30 36 38 36 31 29 26 24 22 23 18 5 5 10 18 14 5 3 3 4 3 3 4 3 6 3 2 2 2 1 0 2 3 2 2 4 7 13 16 14 11 11 11 8 8 7 5 4 3 4 5 6
25 31 29 41 40 37 33 29 29 27 25 11 4 4 22 15 4 4 4 2 2 2 2 3 3 4 3 4 3 2 2 2 1 1 2 2 3 6 12 14 13 12 12 13 10 7 8 7 7 5 4 5 7 7
30 29 38 40 40 37 32 31 29 27 10 7 17 17 9 3 4 4 1 2 1 2 4 4 5 4 5 4 5 4 2 2 1 5 2 2 2 9 18 17 15 12 10 9 8 8 9 8 6 5 7 9 9 10
23 30 37 38 41 38 32 29 25 16 28 26 7 4 2 3 5 3 3 1 1 5 7 6 3 5 4 4 5 2 3 2 4 1 3 3 8 13 19 18 16 12 10 9 10 9 9 9 9 9 10 11 11 9
20 23 32 39 39 37 31 29 21 29 7 4 3 4 2 0 0 2 1 2 3 2 11 11 5 3 3 3 3 4 1 1 0 2 4 2 16 20 22 19 16 14 11 10 11 12 12 12 13 13 12 11 10 8
17 18 32 38 37 35 31 26 25 12 4 4 3 2 1 1 1 2 1 2 3 4 13 6 5 3 2 3 1 3 2 2 4 4 3 5 18 25 25 21 17 14 13 13 13 14 15 15 14 13 12 10 9 7
18 21 24 38 39 34 31 26 17 8 4 3 4 4 2 2 2 2 1 1 4 4 10 3 2 3 1 3 3 4 4 5 3 3 4 11 20 25 24 20 15 13 14 15 16 16 16 15 14 12 11 10 10 9
19 20 18 29 32 33 27 21 12 4 4 3 3 5 5 5 3 3 2 3 4 6 1 2 3 4 3 3 3 4 5 3 5 5 6 11 19 25 23 19 17 16 18 18 19 18 17 16 14 13 12 11 9 7
23 21 22 26 31 32 24 12 4 3 2 3 4 6 5 6 2 2 5 2 3 4 3 2 3 2 4 5 3 4 10 9 7 5 7 13 19 22 21 18 17 17 19 19 19 19 18 16 15 14 12 10 7 5
20 20 22 29 28 14 5 3 4 3 2 3 4 6 4 4 3 5 5 1 2 3 3 2 2 3 3 6 8 6 8 11 9 9 11 16 20 21 19 17 17 19 21 21 21 20 17 14 12 12 10 7 5 4
18 17 13 17 12 5 5 4 4 3 3 4 4 4 3 3 4 5 6 5 5 3 4 3 3 5 5 9 7 6 5 7 10 11 15 20 23 23 21 19 20 21 22 22 20 20 19 18 15 12 9 6 5 5
20 18 19 14 9 6 4 4 3 3 4 3 2 2 2 4 5 5 4 7 6 5 5 9 11 11 12 9 6 5 5 5 7 11 13 22 25 25 22 21 21 24 25 26 25 23 21 16 13 11 8 6 5 6
18 14 8 5 4 4 4 3 4 5 3 2 2 2 2 2 3 4 6 8 5 3 4 4 6 8 11 11 9 7 7 7 9 11 12 14 24 27 28 26 27 27 27 26 24 22 18 17 17 14 11 9 7 7
15 11 5 1 2 3 3 4 1 2 2 2 2 1 2 2 2 4 3 4 1 4 9 10 10 11 10 10 10 10 10 10 11 12 12 13 17 21 24 25 26 26 26 26 23 19 18 18 17 16 14 13 11 10
10 3 2 2 2 2 3 3 2 2 2 2 2 2 2 3 3 2 2 1 4 11 12 9 7 7 8 9 10 11 10 9 10 11 13 14 15 19 20 22 24 24 22 22 23 21 20 19 17 16 15 15 14 13
2 1 1 1 1 3 2 1 1 3 3 4 2 2 2 3 1 1 1 2 8 11 13 12 9 7 8 9 8 8 9 9 10 11 12 13 13 16 20 22 23 22 23 24 25 23 22 20 18 16 16 15 15 15
1 3 4 7 4 4 4 3 4 5 3 3 4 1 1 1 1 2 0 4 8 13 15 13 12 9 8 9 8 6 7 8 9 10 10 11 12 14 19 23 24 25 25 25 23 23 21 19 18 17 17 17 16 16
2 3 4 5 3 2 2 2 3 2 4 4 2 2 2 0 3 0 1 4 13 14 11 9 9 7 7 7 7 5 5 5 7 5 5 5 8 10 13 16 15 16 19 23 23 22 20 19 18 17 16 16 16 16
5 3 3 4 3 4 2 2 3 4 3 4 6 2 3 3 1 3 2 8 10 9 7 7 7 6 5 3 2 2 2 5 7 7 6 5 5 8 10 12 12 10 9 13 17 18 17 17 18 17 16 16 15 15
4 4 6 3 3 2 3 2 2 3 3 5 2 2 4 3 3 4 4 6 6 7 5 5 6 6 7 5 2 1 2 3 7 7 5 4 4 5 9 10 12 13 12 12 12 14 16 16 15 15 14 14 14 16
4 7 4 3 3 3 1 2 2 3 3 4 6 7 7 7 8 7 5 5 5 6 7 7 6 5 6 6 5 3 0 2 4 5 4 2 3 3 2 5 10 12 13 14 14 13 14 15 15 15 16 15 15 16
2 6 2 3 2 2 3 4 4 4 4 3 4 5 8 8 5 9 10 8 8 7 5 4 4 4 5 5 6 5 4 1 4 6 7 7 7 5 5 6 8 10 11 13 14 15 16 17 17 16 16 15 15 14
3 3 4 2 2 2 4 5 5 3 3 3 3 5 6 4 3 2 10 7 7 7 8 8 7 8 7 7 6 4 5 5 4 3 5 7 8 9 9 9 10 11 12 12 13 13 13 14 14 14 14 13 11 11
1 2 2 2 2 2 3 3 2 2 3 3 3 3 3 3 3 4 7 10 9 9 8 7 7 7 7 6 5 4 3 4 6 7 8 10 10 10 10 9 9 8 8 8 9 9 9 10 9 9 9 9 8 8
Wind_Direction
198 185 186 185 186 182 176 170 167 166 164 166 167 162 159 158 158 153 131 140 123 105 120 118 120 129 128 137 143 159 114 33 64 84 127 163 133 95 127 141 165 130 94 111 234 275 201 354 353 50 356 11 18 17
190 186 186 186 187 183 178 169 163 162 164 156 163 160 160 158 152 150 135 119 123 118 124 113 115 120 130 131 128 123 111 106 138 105 126 134 131 142 165 175 8 164 28 117 297 71 98 72 90 45 23 16 21 24
186 177 177 185 185 169 161 166 164 161 157 168 167 164 159 161 149 141 143 125 116 110 97 107 110 124 142 134 129 121 125 121 115 113 135 121 136 153 156 149 128 116 66 144 142 140 120 111 91 61 29 41 35 36
182 174 172 174 171 162 164 169 162 158 156 166 158 158 155 153 145 147 147 140 127 113 103 94 122 118 111 105 122 108 121 117 100 88 87 106 113 219 131 98 153 104 150 134 93 126 121 112 87 50 61 23 25 18
179 174 171 170 170 167 171 166 163 154 153 148 152 149 145 143 141 144 135 130 138 119 128 130 118 119 122 109 118 116 113 104 84 81 74 93 116 142 88 117 193 177 138 186 184 148 130 130 134 40 23 15 48 52
186 171 173 168 168 162 166 165 154 150 151 144 150 150 150 151 150 140 104 110 114 119 108 113 103 108 142 136 128 121 117 109 87 92 92 98 140 144 145 205 170 153 150 157 159 141 140 131 87 47 137 119 66 39
173 170 170 166 168 166 166 151 142 146 149 144 150 152 152 158 160 107 127 149 141 122 96 99 85 92 140 129 117 122 123 107 91 97 92 103 144 177 147 216 171 157 146 128 138 143 127 161 122 119 116 113 39 27
161 173 172 172 167 154 151 148 148 148 143 139 138 145 147 143 130 95 125 139 139 105 91 107 97 136 154 120 102 120 124 123 75 104 121 164 179 194 232 158 158 152 148 151 162 181 172 149 148 148 136 58 15 30
161 170 172 170 160 153 150 145 149 149 143 134 126 127 117 121 83 104 128 124 93 86 104 97 133 151 153 104 103 91 114 111 10 78 192 175 178 227 180 165 169 169 171 159 140 137 140 146 139 131 112 74 57 53
164 162 161 165 156 153 152 149 151 145 140 132 126 99 97 112 118 106 76 80 47 37 76 87 110 119 147 106 74 105 67 107 140 242 165 206 255 159 163 170 178 173 172 167 159 163 169 162 156 135 98 72 77 82
153 155 164 157 156 156 151 154 152 145 142 133 88 81 127 124 93 69 86 86 85 63 82 97 120 123 119 126 135 173 162 147 203 179 217 239 257 183 176 171 175 174 172 186 206 204 192 194 175 154 119 103 100 94
155 162 161 160 156 151 156 155 151 149 143 125 124 123 116 79 71 80 49 76 69 119 122 152 149 113 127 128 107 163 152 176 211 154 226 254 210 162 173 171 173 173 176 180 177 173 168 166 161 149 131 121 112 104
132 155 162 162 155 156 155 152 150 133 120 116 105 94 72 19 59 119 150 147 163 160 162 165 150 133 123 99 91 143 166 191 133 205 239 243 162 169 174 174 173 175 175 170 168 168 165 160 147 139 135 127 118 109
139 145 159 158 154 151 152 152 143 140 119 77 87 78 93 7 178 192 84 98 118 127 166 153 127 139 130 94 133 117 57 191 268 237 239 213 188 179 178 179 180 174 169 170 165 159 154 150 146 141 138 130 120 114
139 136 156 155 152 151 153 148 150 132 85 82 71 97 144 62 125 58 2 108 119 96 154 131 93 108 53 99 196 117 111 245 220 230 231 202 184 179 179 181 180 178 173 168 162 157 152 149 147 144 142 132 127 123
141 144 144 152 153 156 155 151 151 100 68 70 78 97 126 96 33 59 39 165 149 124 168 123 104 75 112 140 141 197 168 221 244 220 214 178 179 180 180 180 179 177 172 168 162 160 156 152 151 151 146 141 136 122
131 121 159 150 154 151 152 140 123 59 67 83 97 102 109 101 67 34 46 97 158 163 231 144 122 188 131 179 202 184 207 219 225 225 206 192 185 179 179 180 181 179 175 171 168 165 164 159 157 156 156 151 142 131
120 121 145 158 160 145 133 127 98 98 98 124 134 164 143 112 50 27 29 84 173 193 190 184 160 154 179 179 226 238 222 226 230 218 195 185 181 181 184 186 184 182 179 176 174 172 170 167 162 161 162 158 156 152
126 128 135 146 138 107 98 84 76 107 116 151 160 163 162 177 202 296 297 209 205 219 224 204 166 191 209 211 228 247 229 225 221 208 191 182 183 186 186 189 190 184 182 181 181 180 175 172 170 172 175 178 181 201
122 123 128 127 96 90 95 106 139 123 153 164 168 185 173 185 196 242 254 248 214 212 213 218 225 218 220 236 251 246 252 238 217 190 189 187 186 191 197 198 193 187 185 184 182 181 181 183 183 184 185 193 218 230
128 133 135 126 82 72 89 119 128 141 133 121 147 191 214 223 234 243 234 216 210 224 226 234 241 242 231 218 204 231 256 249 239 231 220 197 197 196 199 200 197 194 193 191 191 192 194 195 188 192 200 216 234 241
136 152 132 120 66 77 76 86 108 122 110 115 160 220 248 228 216 211 180 198 230 260 260 288 290 280 251 240 237 241 243 235 227 227 223 218 203 202 202 202 198 200 201 202 202 202 201 196 201 206 216 232 246 255
132 143 98 114 95 72 75 117 109 152 123 180 159 278 262 237 223 195 233 223 262 330 316 295 285 279 279 261 248 243 251 251 240 232 226 222 216 216 214 209 207 206 204 204 204 206 202 202 210 218 227 239 248 259
126 87 99 118 90 105 138 186 183 147 147 178 184 258 233 220 193 202 240 30 10 1 354 330 307 293 281 267 253 252 255 248 235 229 223 221 219 216 215 217 215 213 214 211 206 206 204 209 217 225 235 244 250 258
143 163 135 49 141 119 161 2 210 171 216 201 221 242 180 185 156 204 230 11 18 2 359 1 354 313 289 277 274 263 252 245 245 243 229 225 225 220 214 214 217 217 213 209 210 214 214 217 226 238 248 253 258 263
102 206 178 198 190 177 193 163 197 200 166 188 226 242 170 114 186 249 102 16 1 350 348 349 342 323 308 294 285 284 278 258 244 237 243 246 242 237 226 216 213 214 213 215 218 218 218 224 235 245 251 254 260 262
275 273 210 206 213 197 177 185 165 162 184 204 186 140 107 147 236 122 350 315 341 344 350 351 343 318 306 304 283 283 268 225 225 243 244 259 242 236 231 231 236 241 234 225 220 221 228 236 242 248 253 252 257 259
235 224 181 191 210 224 217 184 192 200 189 168 134 177 192 199 182 329 326 325 336 350 360 10 9 353 329 305 260 245 243 219 209 214 237 245 235 220 213 210 208 215 224 226 232 235 242 250 250 252 254 253 255 255
219 207 192 185 185 240 235 222 219 173 168 177 167 130 123 102 25 8 356 352 355 3 8 37 44 43 38 27 8 226 209 220 213 229 249 283 299 258 231 221 215 212 218 226 233 238 238 241 241 246 250 251 248 247
213 186 180 174 166 227 213 197 168 156 155 148 132 123 120 116 66 50 33 24 23 29 26 18 12 20 32 45 47 46 146 208 220 231 246 314 12 7 267 236 236 237 237 238 244 246 242 240 244 250 254 258 262 262
188 192 168 175 200 193 188 176 162 150 139 131 133 146 146 154 116 54 44 41 37 38 46 50 40 35 34 35 43 37 31 300 261 262 273 282 282 279 267 246 234 233 237 243 247 250 250 249 253 257 258 262 263 256
204 204 187 170 194 173 153 172 170 165 140 136 109 129 138 141 105 59 16 27 31 40 44 48 55 59 61 62 67 63 39 26 17 327 300 294 289 284 276 267 260 253 250 250 248 247 246 248 251 257 262 260 251 243
175 169 146 129 131 166 170 154 153 110 100 95 84 100 104 106 104 34 15 8 10 15 21 35 52 71 77 74 70 54 19 359 347 337 326 315 305 296 284 271 257 243 240 242 242 242 247 252 253 251 245 240 239 239